Anniston, AL

8:31 AM CDT on July 25, 2017 (GMT -0500)
Anniston Metro

Weather History for KANB - February, 2014

Change the Weather History Date:

Wednesday, February 26, 2014

  Actual Average Record
Temperature  
Mean Temperature 39 °F 50 °F  
Max Temperature 46 °F 61 °F 84 °F (1977)
Min Temperature 31 °F 39 °F 16 °F (1967)
Degree Days  
Heating Degree Days 26    
Month to date heating degree days 461  
Since 1 July heating degree days 2429  
Moisture  
Dew Point 23 °F    
Average Humidity 58    
Maximum Humidity 86    
Minimum Humidity 29    
Precipitation  
Precipitation 0.25 in 0.18 in 1.36 in (1998)
Month to date precipitation 3.93 4.70  
Year to date precipitation 7.14 9.22  
Sea Level Pressure  
Sea Level Pressure 30.00 in    
Wind  
Wind Speed 9 mph (NNW)    
Max Wind Speed 15 mph    
Max Gust Speed 21 mph    
Visibility 10 miles    
Events Rain    
T = Trace of Precipitation, MM = Missing Value Source: NWS Daily Summary

Daily Weather History Graph

Daily Weather History Graph

Search for Another Location

Airport or City:

Trip Planner

Search our weather history database for the weather conditions in past years. The results will help you decide how hot, cold, wet, or windy it might be!

Date:

Astronomy

Feb. 26, 2014 Rise Set
Actual Time 6:15 AM CST 5:37 PM CST
Civil Twilight 5:50 AM CST 6:02 PM CST
Nautical Twilight 5:21 AM CST 6:31 PM CST
Astronomical Twilight 4:52 AM CST 7:00 PM CST
Moon 3:54 AM CST (2/26) 2:56 PM CST (2/26)
Length of Visible Light 12h 12m
Length of Day
11h 22m
Waning Crescent, 10% of the Moon is Illuminated
Feb 26
Waning Crescent
Mar 1
New
Mar 8
First Quarter
Mar 16
Full
Mar 23
Last Quarter

Hourly Weather History & Observations

Time (CST) Temp. Windchill Dew Point Humidity Pressure Visibility Wind Dir Wind Speed Gust Speed Precip Events Conditions
12:53 AM 46.0 °F - 43.0 °F 89% 29.96 in 6.0 mi Calm Calm - 0.03 in Rain Light Rain
1:53 AM 44.1 °F 39.0 °F 35.1 °F 71% 29.95 in 10.0 mi North 9.2 mph - 0.04 in   Overcast
2:53 AM 42.1 °F 36.6 °F 33.1 °F 70% 29.96 in 8.0 mi NNE 9.2 mph - 0.01 in Rain Light Rain
3:53 AM 39.9 °F 35.8 °F 34.0 °F 79% 29.98 in 10.0 mi North 5.8 mph - 0.04 in Rain Light Rain
4:53 AM 37.9 °F 30.5 °F 30.9 °F 76% 30.01 in 10.0 mi North 11.5 mph - 0.05 in Rain Light Rain
5:53 AM 37.9 °F 33.5 °F 32.0 °F 79% 30.04 in 7.0 mi NW 5.8 mph 16.1 mph 0.06 in Rain Light Rain
6:53 AM 37.0 °F 28.5 °F 28.9 °F 73% 30.04 in 10.0 mi North 13.8 mph 19.6 mph 0.02 in   Overcast
7:53 AM 37.0 °F 30.4 °F 25.0 °F 62% 30.05 in 10.0 mi North 9.2 mph - N/A   Overcast
8:53 AM 36.0 °F 29.0 °F 24.1 °F 62% 30.06 in 10.0 mi North 9.2 mph 18.4 mph N/A   Overcast
9:53 AM 37.0 °F 31.6 °F 24.1 °F 59% 30.05 in 10.0 mi NW 6.9 mph - N/A   Mostly Cloudy
10:53 AM 37.0 °F 31.0 °F 21.9 °F 54% 30.04 in 10.0 mi North 8.1 mph - N/A   Scattered Clouds
11:53 AM 37.9 °F 30.9 °F 21.0 °F 51% 30.01 in 10.0 mi NNW 10.4 mph - N/A   Clear
12:53 PM 39.0 °F 33.4 °F 21.0 °F 49% 29.99 in 10.0 mi NNW 8.1 mph 16.1 mph N/A   Clear
1:53 PM 41.0 °F 35.2 °F 23.0 °F 49% 29.96 in 10.0 mi WNW 9.2 mph - N/A   Clear
2:53 PM 43.0 °F 36.4 °F 21.9 °F 43% 29.95 in 10.0 mi NNW 12.7 mph 20.7 mph N/A   Clear
3:53 PM 42.1 °F 35.2 °F 21.9 °F 45% 29.94 in 10.0 mi North 12.7 mph - N/A   Clear
4:53 PM 39.9 °F 33.4 °F 21.0 °F 47% 29.95 in 10.0 mi WNW 10.4 mph - N/A   Clear
5:53 PM 39.0 °F 33.4 °F 19.9 °F 46% 29.97 in 10.0 mi NW 8.1 mph - N/A   Clear
6:53 PM - - - N/A% 29.97 in - North - - N/A   Unknown
7:53 PM 37.0 °F 31.0 °F 10.0 °F 33% 30.01 in 10.0 mi WNW 8.1 mph - N/A   Clear
8:53 PM 35.1 °F 28.6 °F 6.1 °F 30% 30.02 in 10.0 mi NNW 8.1 mph - N/A   Clear
9:53 PM 33.1 °F 26.1 °F 6.1 °F 32% 30.02 in 10.0 mi NNW 8.1 mph - N/A   Clear
10:53 PM 32.0 °F 25.6 °F 7.0 °F 35% 30.02 in 10.0 mi NNW 6.9 mph - N/A   Clear
11:53 PM 30.9 °F 25.2 °F - N/A% 30.03 in 10.0 mi NNW 5.8 mph - N/A   Clear